SCP
0 0 0 0 0 0 0 0 0 0 0 0 0 0 0 0 0 0 0 0 0 0 0 0 0 0 0 0 0 0 0 0 0 0 0 -0 -0 0 0 0 -0 -0 -0
0 0 0 0 0 0 0 0 0 0 0 0 0 0 0 0 0 0 0 0 0 0 0 0 0 0 0 0 0 0 0 0 0 0 0 0 0 0 0 0 0 -0 -0
0 0 0 0 0 0 0 0 0 0 0 0 0 0 0 0 0 0 0 0 0 0 0 0 0 0 0 0 0 0 0 0 0 0 0 0 0 0 0 0 0 0 -0
0 0 0 0 0 0 0 0 0 0 0 0 0 0 0 0 0 0 0 0 0 0 0 0 0 0 0 0 0 0 0 0 0 0 0 0 0 0 0 0 0 0 0
0 0 0 0 0 0 0 0 0 0 0 0 0 0 0 0 0 0 0 0 0 0 0 0 0 0 0 0 0 0 0 0 0 0 0 0 0 0 0 0 0 0 0
0 0 0 0 0 0 0 0 0 0 0 0 0 0 0 0 0 0 0 0 0 0 0 0 0 0 0 0 0 0 0 0 0 0 0 0 0 0 0 0 0 0 0
0 0 0 0 0 0 0 0 0 0 0 0 0 0 0 0 0 0 0 0 0 0 0 0 0 0 0 0 0 0 0 0 0 0 0 0 0 0 0 0 0 0 0
0 0 0 0 0 0 0 0 0 0 0 0 0 0 0 0 0 0 0 0 0 0 0 0 0 0 0 0 0 0 0 0 0 0 0 0 0 0 0 0 0 0 0
0 0 0 0 0 0 0 0 0 0 0 0 0 0 0 0 0 0 0 0 0 0 0 0 0 0 0 0 0 0 0 0 0 0 0 0 0 0 0 0 0 0 0
0 0 0 0 0 0 0 0 0 0 0 0 0 0 0 0 0 0 0 0 0 0 0 0 0 0 0 0 0 0 0 0 0 0 0 0 0 0 0 0 0 0 0
0 0 0 0 0 0 0 0 0 0 0 0 0 0 0 0 0 0 0 0 0 0 0 0 0 0 0 0 0 0 0 0 0 0 0 0 0 0 0 0 0 0 0
0 0 0 0 0 0 0 0 0 0 0 0 0 0 0 0 0 0 0 0 0 0 0 0 0 0 0 0 0 0 0 0 0 0 0 0 0 0 0 0 0 0 0
0 0 0 0 0 0 0 0 0 0 0 0 0 0 0 0 0 0 0 0 0 0 0 0 0 0 0 0 0 0 0 0 0 0 0 0 0 0 0 0 0 0 0
0 0 0 0 0 0 0 0 0 0 0 0 0 0 0 0 0 0 0 0 0 0 0 0 0 0 0 0 0 0 0 0 0 0 0 0 0 0 0 0 0 0 0
0 0 0 0 0 0 0 0 0 0 0 0 0 0 0 0 0 0 0 0 0 0 0 0 0 0 0 0 0 0 0 0 0 0 0 0 0 0 0 0 0 0 0
0 0 0 0 0 0 0 0 0 0 0 0 0 0 0 0 0 0 0 0 0 0 0 0 0 0 0 0 0 0 0 0 0 0 0 0 0 0 0 0 0 0 0
0 0 0 0 0 0 0 0 0 0 0 0 0 0 0 0 0 0 0 0 0 0 0 0 0 0 0 0 0 0 0 0 0 0 0 0 0 0 0 0 0 0 0
0 0 0 0 0 0 0 0 0 0 0 0 0 0 0 0 0 0 0 0 0 0 0 0 0 0 0 0 0 0 0 0 0 0 0 0 0 0 0 0 0 0 0
0 0 0 0 0 0 0 0 0 0 0 0 0 0 0 0 0 0 0 0 0 0 0 0 0 0 0 0 0 0 0 0 0 0 0 0 0 0 0 0 0 0 0
0 0 0 0 0 0 0 0 0 0 0 0 0 0 0 0 0 0 0 0 0 0 0 0 0 0 0 0 0 0 0 0 0 0 0 0 0 0 0 0 0 0 0
0 0 0 0 0 0 0 0 0 0 0 0 0 0 0 0 0 0 0 0 0 0 0 0 0 0 0 0 0 0 0 0 0 0 0 0 0 0 0 0 0 0 0
0 0 0 0 0 0 0 0 0 0 0 0 0 0 0 0 0 0 0 0 0 0 0 0 0 0 0 0 0 0 0 0 0 0 0 0 0 0 0 0 0 0 0
0 0 0 0 0 0 0 0 0 0 0 0 0 0 0 0 0 0 0 0 0 0 0 0 0 0 0 0 0 0 0 0 0 0 0 0 0 0 0 0 0 0 0
0 0 0 0 0 0 0 0 0 0 0 0 0 0 0 0 0 0 0 0 0 0 0 0 0 0 0 0 0 0 0 0 0 0 0 0 0 0 0 0 0 0 0
0 0 0 0 0 0 0 0 0 0 0 0 0 0 0 0 0 0 0 0 0 0 0 0 0 0 0 0 0 0 0 0 0 0 0 0 0 0 0 0 0 0 0
0 0 0 0 0 0 0 0 0 0 0 0 0 0 0 0 0 0 0 0 0 0 0 0 0 0 0 0 0 0 0 0 0 0 0 0 0 0 0 0 0 0 0
Wind_Speed
22 22 22 21 20 20 19 18 15 13 10 7 6 4 4 3 3 3 4 4 4 5 6 6 6 6 6 7 7 7 8 8 8 10 13 14 14 14 12 10 11 12 12
18 20 21 22 23 23 21 19 17 15 12 7 5 2 1 2 2 3 5 5 5 6 6 7 7 7 6 7 6 7 7 7 5 8 12 12 12 8 8 11 11 12 12
19 22 24 26 24 24 23 20 19 16 13 9 6 4 2 3 4 5 4 5 6 6 7 7 8 7 6 6 7 7 8 7 7 6 6 9 11 15 11 11 11 12 12
18 21 24 26 26 24 22 21 18 15 12 11 8 8 6 7 5 3 4 6 7 7 8 8 8 7 6 7 7 7 8 9 9 7 9 12 12 11 18 13 14 15 14
16 19 22 23 24 21 19 19 18 16 14 13 11 9 8 7 4 5 7 8 8 8 7 8 9 8 8 8 9 10 10 9 11 10 10 11 11 14 15 20 16 14 13
14 15 17 19 20 20 19 19 19 17 15 15 14 12 10 8 7 7 7 6 6 6 8 9 9 9 9 9 9 10 12 11 12 12 12 12 11 10 12 16 20 18 14
11 14 17 20 22 23 22 20 21 19 17 16 15 13 12 10 9 8 7 6 6 7 8 8 9 9 10 10 10 11 12 13 14 15 13 12 13 12 12 14 16 21 16
9 12 16 19 21 23 24 23 23 21 19 17 15 13 11 8 7 6 5 6 7 8 9 9 10 11 11 12 12 11 13 13 14 17 16 13 12 12 12 13 14 19 20
11 13 16 19 21 24 25 25 25 23 20 17 15 12 10 8 7 6 6 7 8 7 9 10 10 11 12 13 13 11 15 15 15 16 17 15 12 13 13 12 13 16 19
12 13 15 18 20 21 22 23 24 23 20 17 13 10 10 8 6 5 7 7 8 8 9 9 10 11 12 13 13 12 14 16 16 14 17 17 14 14 13 13 13 16 18
14 14 15 18 19 19 21 23 23 22 19 16 14 12 10 7 6 6 6 7 8 8 9 9 10 11 12 13 14 14 15 17 18 18 19 21 20 16 13 13 15 15 14
12 12 14 16 19 22 22 23 21 20 19 16 14 11 9 8 7 6 6 6 7 8 8 9 11 12 13 13 14 14 15 18 20 20 21 21 19 20 17 15 16 16 16
14 12 14 18 20 21 21 21 21 19 17 16 13 11 9 8 6 6 6 6 7 8 8 9 11 12 13 12 13 14 16 18 19 20 21 20 21 20 17 18 16 15 14
15 17 18 18 18 19 20 21 21 19 18 16 14 11 9 8 6 5 6 6 6 7 9 10 11 12 12 12 13 14 17 19 20 21 21 21 21 21 20 18 18 16 17
16 19 18 17 18 19 21 22 21 19 18 15 13 11 9 6 5 6 6 5 6 7 9 11 12 12 11 11 15 17 18 21 21 21 21 21 23 28 28 22 18 17 16
20 19 18 17 20 22 22 22 20 18 17 15 13 11 9 7 6 5 5 6 6 7 8 10 11 12 10 16 23 22 19 21 21 20 20 21 22 25 33 36 34 30 25
22 17 17 20 21 23 24 23 20 19 16 14 13 11 10 8 6 5 5 6 6 7 8 9 9 12 13 19 24 26 20 20 19 20 19 17 18 22 22 28 33 32 35
19 13 15 17 17 18 20 19 18 17 16 14 13 12 11 9 7 5 4 5 5 6 8 9 10 12 14 20 24 27 20 19 20 19 20 20 21 22 24 22 22 23 25
15 10 11 13 17 19 21 20 18 17 16 15 14 12 10 9 7 5 4 3 4 6 7 9 11 13 15 21 25 24 16 18 19 19 19 21 22 27 33 26 23 23 20
4 8 9 12 15 18 21 22 20 18 16 15 13 11 8 6 5 4 2 2 4 6 8 10 11 14 15 20 24 25 15 18 18 18 18 23 26 32 34 27 23 21 20
8 12 14 13 14 16 18 19 18 15 14 14 12 10 8 7 6 4 1 1 4 6 8 10 12 13 13 16 23 27 17 18 18 16 16 17 30 36 37 33 23 24 23
11 13 12 14 15 17 19 18 16 15 14 13 12 10 7 6 5 4 3 1 2 5 8 10 11 10 11 16 22 28 28 27 21 17 16 19 34 38 37 30 30 34 28
9 10 11 14 14 15 17 19 17 16 15 13 12 10 9 7 5 4 3 2 2 3 7 9 10 10 10 12 20 25 29 29 22 18 25 30 35 31 24 26 28 23 16
11 10 12 14 14 13 14 18 18 16 14 12 12 10 8 7 5 4 3 2 1 4 7 8 10 11 10 10 12 13 15 19 18 17 19 25 25 23 18 16 16 12 10
13 13 13 15 17 16 16 16 17 18 16 14 11 10 8 6 5 4 3 1 1 4 7 7 9 11 11 15 22 20 17 16 19 18 12 14 15 14 13 13 13 12 13
16 17 17 18 19 18 17 15 14 15 16 14 11 9 7 5 4 3 3 2 2 6 7 10 11 11 15 22 24 26 26 27 25 14 12 13 15 15 15 14 14 14 13
Wind_Direction
221 204 196 192 187 187 186 186 185 183 179 181 186 188 187 187 204 200 228 249 283 293 293 286 281 275 275 288 299 302 299 301 310 306 309 297 279 264 258 268 273 274 273
221 202 193 192 190 189 189 189 189 184 186 183 170 161 169 256 271 266 252 259 280 280 289 292 289 283 286 293 303 307 300 299 311 321 315 310 303 250 296 278 274 284 290
213 200 196 195 192 191 191 191 191 186 182 172 159 158 200 244 238 234 243 260 271 283 280 275 279 289 296 296 295 292 288 287 292 293 295 305 307 322 289 303 299 297 296
211 202 199 197 195 192 189 190 187 182 177 174 179 194 210 226 229 264 279 286 290 287 282 288 290 293 289 279 279 279 279 281 282 279 253 259 283 295 305 298 303 301 291
202 201 201 199 196 190 186 186 183 180 176 179 186 197 217 237 265 279 283 289 291 290 295 291 287 283 274 272 274 277 275 272 276 276 276 278 272 267 277 290 292 287 283
196 201 198 196 193 189 187 183 182 181 179 182 190 201 214 223 236 246 261 271 283 294 286 276 277 279 280 280 280 279 275 273 271 271 272 271 268 270 270 277 288 288 283
189 190 189 191 188 190 190 184 184 184 181 184 191 199 208 216 232 242 251 271 281 276 274 287 292 293 294 294 287 276 270 268 268 269 270 269 270 274 273 272 278 284 286
203 198 194 192 191 190 191 188 186 185 181 185 190 194 200 207 222 240 260 268 269 276 288 292 290 294 296 291 283 276 272 270 269 269 269 270 268 266 264 263 270 279 283
212 202 197 195 193 192 193 190 184 183 182 183 185 187 189 196 207 219 240 254 262 275 286 291 297 299 294 288 284 278 278 277 273 272 270 269 268 263 262 263 262 267 274
217 210 202 201 198 195 193 191 187 182 178 177 179 179 182 189 198 217 239 255 270 280 285 292 298 297 292 286 281 273 271 272 271 271 272 269 267 263 258 257 261 258 260
216 207 207 202 199 196 192 189 187 180 172 171 169 172 176 180 195 222 246 262 273 282 291 299 298 292 290 289 287 286 284 279 276 272 272 270 268 266 262 260 259 259 264
218 210 206 201 198 196 191 188 185 177 167 164 165 170 171 180 198 220 244 262 277 286 294 299 295 292 293 294 292 289 286 284 282 280 278 275 274 270 266 264 262 262 262
217 213 208 206 204 195 188 184 182 173 159 160 165 168 177 185 200 223 249 265 276 287 296 297 295 294 294 295 293 292 289 286 283 280 277 274 272 269 266 263 262 264 267
225 221 214 212 206 194 186 182 180 170 160 163 166 171 177 183 198 230 247 261 279 295 299 295 290 290 294 299 297 294 291 287 281 277 272 268 265 264 264 262 259 258 257
234 228 223 212 200 192 185 181 178 168 161 163 166 168 165 174 195 227 248 272 286 285 285 290 291 295 301 299 299 296 291 287 284 279 274 268 265 264 262 260 257 255 257
254 237 221 205 198 192 184 179 174 164 159 162 163 159 164 174 198 219 249 267 272 281 288 290 297 302 302 303 302 299 298 294 290 285 279 275 270 265 265 263 260 255 254
263 250 213 204 199 189 181 178 167 156 157 158 158 161 167 179 194 212 241 263 279 293 294 297 305 305 304 303 305 307 300 294 292 290 286 279 271 269 266 266 264 263 262
262 240 212 206 192 178 173 164 155 152 156 158 162 166 171 176 184 206 232 259 278 293 302 308 305 300 302 306 308 306 303 295 290 288 286 281 279 273 272 270 263 255 252
267 250 206 189 170 167 161 154 153 153 158 165 167 168 171 172 176 190 220 259 291 306 306 301 302 299 298 302 306 308 299 291 293 291 285 279 275 275 277 274 270 264 252
207 142 147 154 161 158 155 155 158 158 163 163 160 157 160 163 173 182 216 296 311 307 308 305 301 293 288 293 304 306 300 296 295 290 284 281 280 278 277 275 274 271 268
145 148 147 153 156 155 160 156 154 158 152 144 141 145 154 168 171 174 172 299 314 314 311 304 298 290 291 296 303 307 306 302 303 305 303 297 294 290 284 278 273 270 272
162 161 155 152 154 162 161 154 147 139 137 138 139 145 158 177 170 166 163 175 326 323 320 307 300 302 307 305 308 313 317 318 315 308 304 305 306 299 286 277 272 272 272
175 172 159 148 154 165 162 147 138 139 142 143 144 153 161 174 173 172 151 112 41 336 317 308 311 311 307 303 309 317 324 324 317 311 319 319 317 309 295 289 283 277 270
178 173 159 154 153 159 149 136 138 141 142 145 149 153 158 165 172 168 138 105 27 328 307 316 313 307 308 307 310 320 326 321 316 324 323 317 325 330 326 313 308 295 281
173 171 169 162 156 152 138 139 144 148 148 149 151 149 152 164 156 137 125 125 198 288 304 314 311 311 311 316 328 335 335 325 328 332 326 323 326 329 329 327 324 323 318
170 170 171 164 155 150 143 147 154 151 145 146 152 149 147 153 142 125 133 149 323 333 326 316 309 312 319 324 330 336 337 333 338 333 330 333 328 329 329 330 327 323 319